Tracking 20041 objects as of 22-Nov-2019
Live streaming from Space Station
objects crossing your sky now

COSMOS 1431

Track COSMOS 1431 now!
10-day predictions
COSMOS 1431 is classified as:


NORAD ID: 13763
Int'l Code: 1983-002C
Perigee: 1,471.4 km
Apogee: 1,491.0 km
Inclination: 74.0 °
Period: 115.4 minutes
Semi major axis: 7852 km
RCS: 0.6684 m2 (medium)
Launch date: January 19, 1983
Source: Commonwealth of Independent States (former USSR) (CIS)
Launch site: PLESETSK MISSILE AND SPACE COMPLEX (PKMTR)
aabbcc
Your satellite tracking list
Your tracking list is empty




NASA's NSSDC Master Catalog

Two Line Element Set (TLE):
1 13763U 83002C   19325.60717549 -.00000002 +00000-0 +92297-4 0  9998
2 13763 074.0248 354.7239 0012497 268.4572 258.8181 12.47708835677881
Source of the keplerian elements: AFSPC